Date String (YYYY-MM-DD hh:mm:ss) UTC,Instrument flags,Ambient pressure (hPa),Sample flow (lpm),Bypass flow (lpm),Sample temperature (°C),Ambient temperature (°C),ASC tube jacket temperature (°C),LED temperature (°C),Box temperature (°C),Sample RH (%),Span deviation,Mass concentration (μg/m³),Mass concentration (μg/m³),Mass concentration (μg/m³)
DateTimeUTC,F1_M11,P_M11,Q1_M11,Q2_M11,T1_M11,T2_M11,T3_M11,T4_M11,T5_M11,U1_M11,ZSPAN_M11,X0_M11,X2_M11,X1_M11
2022-02-23 03:00:00,,0829.6,5.00,0.00,22.1,20.8,00.0,31.2,23.7,04.8,-000.2,0009.00,0005.67,0005.16
2022-02-23 03:01:00,,0829.7,5.01,0.00,22.0,20.6,00.0,31.2,23.6,04.8,0000.1,0009.14,0005.71,0005.18
2022-02-23 03:02:00,,0829.7,5.02,0.00,21.9,20.5,00.0,31.1,23.4,04.8,0000.8,0009.25,0005.76,0005.21
2022-02-23 03:03:00,,0829.7,5.00,0.00,21.9,20.5,00.0,31.1,23.4,04.9,0000.8,0009.33,0005.79,0005.23
2022-02-23 03:04:00,,0829.7,4.99,0.00,21.9,21.4,00.0,31.1,23.6,04.9,0000.7,0009.36,0005.78,0005.25
2022-02-23 03:05:00,,0829.6,5.00,0.00,22.0,22.3,00.0,31.1,23.8,04.8,0000.9,0009.47,0005.79,0005.28
2022-02-23 03:06:00,,0829.6,5.01,0.00,22.2,22.8,00.0,31.2,24.1,04.8,0000.6,0009.53,0005.82,0005.30
2022-02-23 03:07:00,,0829.6,5.00,0.00,22.2,22.5,00.0,31.2,24.1,04.8,0000.0,0009.60,0005.85,0005.31
2022-02-23 03:08:00,,0829.5,5.00,0.00,22.2,22.1,00.0,31.2,24.0,04.8,0000.0,0009.59,0005.85,0005.30
2022-02-23 03:09:00,,0829.6,5.01,0.00,22.2,21.6,00.0,31.1,23.9,04.8,0000.3,0009.40,0005.74,0005.21
2022-02-23 03:10:00,,0829.6,4.99,0.00,22.1,21.3,00.0,31.1,23.8,04.8,0001.6,0009.37,0005.67,0005.13
2022-02-23 03:11:00,,0829.6,5.00,0.00,22.1,21.0,00.0,31.1,23.7,04.8,0001.5,0009.67,0005.58,0005.05
2022-02-23 03:12:00,,0829.6,5.00,0.00,22.0,20.8,00.0,31.1,23.6,04.8,0001.2,0009.67,0005.49,0004.97
2022-02-23 03:13:00,,0829.6,5.01,0.00,22.0,20.7,00.0,31.0,23.6,04.9,0001.8,0009.43,0005.36,0004.87
2022-02-23 03:14:00,,0829.6,5.00,0.00,21.9,20.6,00.0,31.0,23.5,04.9,0001.8,0009.28,0005.25,0004.77
2022-02-23 03:15:00,,0829.6,4.99,0.00,21.9,21.3,00.0,31.0,23.6,04.9,0002.3,0009.04,0005.15,0004.66
2022-02-23 03:16:00,,0829.6,5.01,0.00,22.0,22.2,00.0,31.1,23.9,04.9,0002.2,0008.81,0005.03,0004.54
2022-02-23 03:17:00,,0829.5,5.00,0.00,22.2,22.8,00.0,31.1,24.1,04.8,0001.6,0008.72,0004.93,0004.41
2022-02-23 03:18:00,,0829.5,5.00,0.00,22.2,22.6,00.0,31.1,24.1,04.8,0000.9,0009.31,0004.84,0004.30
2022-02-23 03:19:00,,0829.5,4.99,0.00,22.2,22.2,00.0,31.1,24.1,04.8,0000.6,0009.35,0004.79,0004.21
2022-02-23 03:20:00,,0829.5,5.00,0.00,22.2,21.8,00.0,31.1,23.9,04.8,0000.8,0009.33,0004.76,0004.18
2022-02-23 03:21:00,,0829.5,5.00,0.00,22.1,21.4,00.0,31.1,23.8,04.8,0000.3,0009.23,0004.73,0004.16
2022-02-23 03:22:00,,0829.5,5.00,0.00,22.1,21.1,00.0,31.1,23.7,04.9,0000.0,0008.85,0004.72,0004.14
2022-02-23 03:23:00,,0829.5,5.00,0.00,22.0,20.9,00.0,31.1,23.6,04.9,0000.4,0008.66,0004.68,0004.11
2022-02-23 03:24:00,,0829.5,4.99,0.00,22.0,20.8,00.0,31.0,23.6,04.9,0000.5,0008.68,0004.66,0004.09
2022-02-23 03:25:00,,0829.5,5.01,0.00,21.9,20.8,00.0,31.0,23.5,04.9,0001.0,0008.96,0004.63,0004.08
2022-02-23 03:26:00,,0829.5,5.02,0.00,22.0,21.7,00.0,31.0,23.7,04.9,0000.9,0009.41,0004.61,0004.07
2022-02-23 03:27:00,,0829.5,5.00,0.00,22.1,22.5,00.0,31.1,24.0,04.8,0001.2,0009.43,0004.61,0004.06
2022-02-23 03:28:00,,0829.5,5.01,0.00,22.3,23.1,00.0,31.1,24.2,04.8,0002.5,0009.73,0004.60,0004.05
2022-02-23 03:29:00,,0829.5,4.98,0.00,22.3,22.9,00.0,31.1,24.2,04.8,0003.0,0009.07,0004.59,0004.03
2022-02-23 03:30:00,,0829.5,5.00,0.00,22.3,22.4,00.0,31.1,24.2,04.8,0003.2,0009.02,0004.55,0004.01
2022-02-23 03:31:00,,0829.5,4.98,0.00,22.3,21.9,00.0,31.1,24.0,04.8,0002.9,0009.17,0004.56,0003.99
2022-02-23 03:32:00,,0829.5,5.00,0.00,22.2,21.5,00.0,31.1,23.9,04.8,0002.8,0009.22,0004.55,0003.98
2022-02-23 03:33:00,,0829.5,5.01,0.00,22.2,21.2,00.0,31.1,23.8,04.8,0003.4,0009.18,0004.56,0003.97
2022-02-23 03:34:00,,0829.5,5.00,0.00,22.1,20.9,00.0,31.1,23.7,04.9,0001.0,0009.11,0004.55,0003.97
2022-02-23 03:35:00,,0829.5,5.00,0.00,22.0,20.7,00.0,31.1,23.6,04.9,0000.0,0009.15,0004.58,0003.96
2022-02-23 03:36:00,,0829.5,5.00,0.00,21.9,20.5,00.0,31.0,23.5,04.9,0000.0,0008.89,0004.61,0003.96
2022-02-23 03:37:00,,0829.5,5.00,0.00,21.9,20.8,00.0,31.0,23.5,04.9,0000.0,0008.46,0004.59,0003.95
2022-02-23 03:38:00,,0829.5,5.00,0.00,22.0,21.8,00.0,31.0,23.7,04.9,0000.0,0008.40,0004.57,0003.94
2022-02-23 03:39:00,,0829.6,5.03,0.00,22.1,22.6,00.0,31.1,24.0,04.8,0000.3,0008.09,0004.53,0003.93
2022-02-23 03:40:00,,0829.6,4.98,0.00,22.2,22.6,00.0,31.1,24.1,04.8,0000.0,0008.07,0004.48,0003.91
2022-02-23 03:41:00,,0829.5,5.00,0.00,22.2,22.3,00.0,31.1,24.1,04.8,0000.0,0007.99,0004.46,0003.90
2022-02-23 03:42:00,,0829.6,5.01,0.00,22.2,22.0,00.0,31.1,24.0,04.8,0000.0,0007.82,0004.43,0003.88
2022-02-23 03:43:00,,0829.6,5.01,0.00,22.1,21.7,00.0,31.1,23.8,04.8,0000.0,0007.69,0004.38,0003.86
2022-02-23 03:44:00,,0829.6,5.00,0.00,22.1,21.5,00.0,31.1,23.8,04.8,0000.0,0007.50,0004.31,0003.84
2022-02-23 03:45:00,,0829.6,5.00,0.00,22.0,21.4,00.0,31.1,23.6,04.8,0000.0,0007.51,0004.28,0003.82
2022-02-23 03:46:00,,0829.6,5.00,0.00,22.0,21.2,00.0,31.1,23.5,04.8,0000.0,0007.46,0004.23,0003.80
2022-02-23 03:47:00,,0829.6,4.98,0.00,22.0,21.6,00.0,31.1,23.6,04.8,0000.0,0007.44,0004.22,0003.78
2022-02-23 03:48:00,,0829.6,5.03,0.00,22.1,22.3,00.0,31.1,23.9,04.8,0000.0,0007.45,0004.21,0003.76
2022-02-23 03:49:00,,0829.6,5.00,0.00,22.2,22.9,00.0,31.1,24.1,04.7,0000.0,0007.42,0004.18,0003.74
2022-02-23 03:50:00,,0829.6,4.99,0.00,22.3,23.0,00.0,31.2,24.3,04.7,0000.0,0007.36,0004.15,0003.71
2022-02-23 03:51:00,,0829.5,5.00,0.00,22.3,22.7,00.0,31.2,24.2,04.7,0000.0,0007.04,0004.11,0003.69
2022-02-23 03:52:00,,0829.5,4.99,0.00,22.3,22.3,00.0,31.2,24.0,04.7,0000.0,0006.87,0004.07,0003.67
2022-02-23 03:53:00,,0829.5,5.00,0.00,22.2,22.0,00.0,31.2,23.8,04.7,0000.0,0007.54,0004.04,0003.63
2022-02-23 03:54:00,,0829.6,5.00,0.00,22.1,21.7,00.0,31.2,23.7,04.7,0000.0,0007.68,0004.03,0003.60
2022-02-23 03:55:00,,0829.7,5.00,0.00,22.0,21.4,00.0,31.1,23.5,04.7,0000.0,0007.74,0004.04,0003.57
2022-02-23 03:56:00,,0829.7,5.00,0.00,22.0,21.7,00.0,31.1,23.6,04.7,0000.0,0007.83,0004.02,0003.52
2022-02-23 03:57:00,,0829.7,5.01,0.00,22.1,22.4,00.0,31.2,23.9,04.6,0000.0,0008.01,0004.00,0003.48
2022-02-23 03:58:00,,0829.6,4.99,0.00,22.3,23.0,00.0,31.2,24.2,04.6,0000.0,0008.19,0003.94,0003.45
2022-02-23 03:59:00,,0829.6,5.01,0.00,22.4,23.1,00.0,31.3,24.3,04.5,0000.0,0008.12,0003.91,0003.42
